| time (UTC) | temp F | wind direction | speed MPH | gust MPH | rain 1hr in | rain 24hr in | rain mn in | humidity % | barometer mb |
| 20260905213415 | 90 | 68 | 3.0 | 5.0 | 0.00 | 0.00 | 0.00 | 70 | 1014.2 |
| 20260905212415 | 91 | 68 | 3.0 | 5.0 | 0.00 | 0.00 | 0.00 | 70 | 1014.3 |
| 20260905211415 | 92 | 23 | 2.0 | 3.0 | 0.00 | 0.00 | 0.00 | 69 | 1014.5 |
| 20260905210455 | 91 | 68 | 3.0 | 5.0 | 0.00 | 0.00 | 0.00 | 70 | 1014.4 |
| 20260905205415 | 92 | 23 | 3.0 | 4.0 | 0.00 | 0.00 | 0.00 | 68 | 1014.6 |
| 20260905204435 | 92 | 68 | 1.0 | 3.0 | 0.00 | 0.00 | 0.00 | 67 | 1014.6 |
| 20260905203415 | 92 | 45 | 5.0 | 5.0 | 0.00 | 0.00 | 0.00 | 66 | 1014.6 |
| 20260905202418 | 92 | 68 | 3.0 | 4.0 | 0.00 | 0.00 | 0.00 | 65 | 1014.7 |
| 20260905201417 | 93 | 315 | 2.0 | 3.0 | 0.00 | 0.00 | 0.00 | 63 | 1015.0 |
| 20260905200437 | 93 | 293 | 2.0 | 3.0 | 0.00 | 0.00 | 0.00 | 61 | 1014.9 |
| 20260905195437 | 93 | 0 | 3.0 | 4.0 | 0.00 | 0.00 | 0.00 | 62 | 1014.9 |
| 20260905194419 | 94 | 315 | 3.0 | 4.0 | 0.00 | 0.00 | 0.00 | 61 | 1015.0 |
| 20260905193417 | 94 | 293 | 4.0 | 6.0 | 0.00 | 0.00 | 0.00 | 62 | 1015.2 |
| 20260905192437 | 94 | 23 | 7.0 | 9.0 | 0.00 | 0.00 | 0.00 | 60 | 1015.2 |
| 20260905191417 | 93 | 293 | 2.0 | 4.0 | 0.00 | 0.00 | 0.00 | 61 | 1015.1 |
| 20260905190437 | 93 | 293 | 5.0 | 8.0 | 0.00 | 0.00 | 0.00 | 61 | 1015.1 |
| 20260905185417 | 92 | 293 | 2.0 | 3.0 | 0.00 | 0.00 | 0.00 | 63 | 1015.1 |
| 20260905184417 | 93 | 293 | 3.0 | 4.0 | 0.00 | 0.00 | 0.00 | 63 | 1015.3 |
| 20260905183417 | 92 | 293 | 3.0 | 4.0 | 0.00 | 0.00 | 0.00 | 62 | 1015.3 |
| 20260905182417 | 92 | 293 | 6.0 | 7.0 | 0.00 | 0.00 | 0.00 | 62 | 1015.3 |
| 20260905181417 | 93 | 293 | 4.0 | 6.0 | 0.00 | 0.00 | 0.00 | 61 | 1015.5 |
| 20260905180418 | 93 | 45 | 3.0 | 4.0 | 0.00 | 0.00 | 0.00 | 62 | 1015.5 |
| 20260905175417 | 93 | 315 | 3.0 | 4.0 | 0.00 | 0.00 | 0.00 | 60 | 1015.5 |
| 20260905174417 | 93 | 0 | 3.0 | 4.0 | 0.00 | 0.00 | 0.00 | 62 | 1015.7 |
| 20260905173417 | 93 | 293 | 5.0 | 7.0 | 0.00 | 0.00 | 0.00 | 62 | 1015.8 |
| 20260905172417 | 93 | 23 | 3.0 | 5.0 | 0.00 | 0.00 | 0.00 | 60 | 1015.8 |
| 20260905171417 | 93 | 315 | 5.0 | 9.0 | 0.00 | 0.00 | 0.00 | 60 | 1015.8 |
| 20260905170417 | 94 | 293 | 3.0 | 5.0 | 0.00 | 0.00 | 0.00 | 60 | 1015.9 |
| 20260905165417 | 94 | 293 | 7.0 | 9.0 | 0.00 | 0.00 | 0.00 | 59 | 1015.9 |
| 20260905164416 | 93 | 270 | 2.0 | 4.0 | 0.00 | 0.00 | 0.00 | 60 | 1015.9 |
| 20260905163416 | 93 | 315 | 3.0 | 4.0 | 0.00 | 0.00 | 0.00 | 62 | 1015.8 |
| 20260905162417 | 91 | 338 | 4.0 | 6.0 | 0.00 | 0.00 | 0.00 | 62 | 1015.8 |
| 20260905161416 | 91 | 293 | 3.0 | 4.0 | 0.00 | 0.00 | 0.00 | 66 | 1015.8 |
| 20260905160417 | 90 | 293 | 4.0 | 5.0 | 0.00 | 0.00 | 0.00 | 67 | 1015.7 |
| 20260905155417 | 90 | 315 | 2.0 | 4.0 | 0.00 | 0.00 | 0.00 | 66 | 1015.8 |
| 20260905154417 | 90 | 315 | 3.0 | 5.0 | 0.00 | 0.00 | 0.00 | 66 | 1015.6 |
| 20260905153416 | 90 | 293 | 2.0 | 3.0 | 0.00 | 0.00 | 0.00 | 66 | 1015.6 |
| 20260905152436 | 90 | 293 | 4.0 | 6.0 | 0.00 | 0.00 | 0.00 | 67 | 1015.7 |
| 20260905151416 | 88 | 293 | 3.0 | 4.0 | 0.00 | 0.00 | 0.00 | 71 | 1015.6 |
| 20260905150416 | 88 | 293 | 3.0 | 6.0 | 0.00 | 0.00 | 0.00 | 70 | 1015.5 |
| 20260905145416 | 87 | 270 | 3.0 | 5.0 | 0.00 | 0.00 | 0.00 | 72 | 1015.4 |
| 20260905144417 | 86 | 293 | 4.0 | 6.0 | 0.00 | 0.00 | 0.00 | 72 | 1015.4 |
| 20260905143416 | 86 | 293 | 3.0 | 4.0 | 0.00 | 0.00 | 0.00 | 73 | 1015.4 |
| 20260905142416 | 85 | 293 | 4.0 | 6.0 | 0.00 | 0.00 | 0.00 | 75 | 1015.4 |
| 20260905141416 | 85 | 293 | 5.0 | 6.0 | 0.00 | 0.00 | 0.00 | 74 | 1015.4 |
| 20260905140438 | 84 | 293 | 3.0 | 5.0 | 0.00 | 0.00 | 0.00 | 75 | 1015.3 |
| 20260905135416 | 83 | 248 | 2.0 | 3.0 | 0.00 | 0.00 | 0.00 | 79 | 1015.3 |
| 20260905134417 | 82 | 293 | 1.0 | 2.0 | 0.00 | 0.00 | 0.00 | 80 | 1015.2 |
| 20260905133416 | 81 | 225 | 3.0 | 3.0 | 0.00 | 0.00 | 0.00 | 81 | 1015.0 |
| 20260905132417 | 80 | 293 | 3.0 | 4.0 | 0.00 | 0.00 | 0.00 | 83 | 1015.0 |
| 20260905131416 | 78 | 293 | 2.0 | 3.0 | 0.00 | 0.00 | 0.00 | 82 | 1015.2 |
| 20260905130416 | 77 | 293 | 2.0 | 3.0 | 0.00 | 0.00 | 0.00 | 81 | 1015.1 |
| 20260905125416 | 76 | 293 | 1.0 | 2.0 | 0.00 | 0.00 | 0.00 | 79 | 1015.2 |
| 20260905124436 | 75 | 293 | 2.0 | 2.0 | 0.00 | 0.00 | 0.00 | 79 | 1015.1 |
| 20260905123416 | 75 | 0.0 | 0.0 | 0.00 | 0.00 | 0.00 | 80 | 1015.0 | |
| 20260905122416 | 74 | 0.0 | 0.0 | 0.00 | 0.00 | 0.00 | 81 | 1015.0 | |
| 20260905121416 | 74 | 0.0 | 0.0 | 0.00 | 0.00 | 0.00 | 81 | 1014.8 | |
| 20260905120416 | 74 | 0.0 | 0.0 | 0.00 | 0.00 | 0.00 | 81 | 1014.7 | |
| 20260905115416 | 74 | 0.0 | 0.0 | 0.00 | 0.00 | 0.00 | 82 | 1014.6 | |
| 20260905114416 | 74 | 0.0 | 0.0 | 0.00 | 0.00 | 0.00 | 82 | 1014.5 | |
| 20260905113416 | 74 | 0.0 | 0.0 | 0.00 | 0.00 | 0.00 | 82 | 1014.5 | |
| 20260905112416 | 74 | 0.0 | 0.0 | 0.00 | 0.00 | 0.00 | 82 | 1014.4 | |
| 20260905111416 | 74 | 0.0 | 0.0 | 0.00 | 0.00 | 0.00 | 83 | 1014.2 | |
| 20260905110416 | 74 | 0.0 | 0.0 | 0.00 | 0.00 | 0.00 | 83 | 1014.2 | |
| 20260905105416 | 74 | 0.0 | 0.0 | 0.00 | 0.00 | 0.00 | 83 | 1014.2 | |
| 20260905104416 | 75 | 0.0 | 0.0 | 0.00 | 0.00 | 0.00 | 83 | 1014.2 | |
| 20260905103416 | 75 | 0.0 | 0.0 | 0.00 | 0.00 | 0.00 | 83 | 1014.3 | |
| 20260905102416 | 75 | 0.0 | 0.0 | 0.00 | 0.00 | 0.00 | 83 | 1014.2 | |
| 20260905101416 | 75 | 0.0 | 0.0 | 0.00 | 0.00 | 0.00 | 83 | 1014.3 | |
| 20260905100416 | 76 | 0.0 | 0.0 | 0.00 | 0.00 | 0.00 | 83 | 1014.3 | |
| 20260905095416 | 76 | 0.0 | 0.0 | 0.00 | 0.00 | 0.00 | 83 | 1014.5 | |
| 20260905094416 | 76 | 0.0 | 0.0 | 0.00 | 0.00 | 0.00 | 83 | 1014.5 | |
| 20260905093456 | 76 | 203 | 1.0 | 2.0 | 0.00 | 0.00 | 0.00 | 83 | 1014.5 |
| 20260905092416 | 76 | 225 | 2.0 | 3.0 | 0.00 | 0.00 | 0.00 | 83 | 1014.5 |
| 20260905091436 | 76 | 225 | 2.0 | 3.0 | 0.00 | 0.00 | 0.00 | 83 | 1014.5 |
| 20260905090416 | 76 | 0.0 | 1.0 | 0.00 | 0.00 | 0.00 | 83 | 1014.5 | |
| 20260905085415 | 76 | 158 | 2.0 | 4.0 | 0.00 | 0.00 | 0.00 | 83 | 1014.5 |
| 20260905084415 | 76 | 180 | 1.0 | 3.0 | 0.00 | 0.00 | 0.00 | 83 | 1014.6 |
| 20260905083455 | 76 | 0.0 | 0.0 | 0.00 | 0.00 | 0.00 | 83 | 1014.6 | |
| 20260905082435 | 76 | 0.0 | 0.0 | 0.00 | 0.00 | 0.00 | 83 | 1014.6 | |
| 20260905081415 | 77 | 0.0 | 0.0 | 0.00 | 0.00 | 0.00 | 83 | 1014.7 | |
| 20260905080415 | 77 | 0.0 | 0.0 | 0.00 | 0.00 | 0.00 | 83 | 1014.7 | |
| 20260905075415 | 78 | 0.0 | 0.0 | 0.00 | 0.00 | 0.00 | 83 | 1014.7 | |
| 20260905074416 | 78 | 0.0 | 1.0 | 0.00 | 0.00 | 0.00 | 82 | 1014.6 | |
| 20260905073415 | 78 | 135 | 1.0 | 2.0 | 0.00 | 0.00 | 0.00 | 83 | 1014.7 |
| 20260905072415 | 78 | 158 | 2.0 | 3.0 | 0.00 | 0.00 | 0.00 | 83 | 1014.6 |
| 20260905071415 | 78 | 158 | 1.0 | 3.0 | 0.00 | 0.00 | 0.00 | 83 | 1014.6 |
| 20260905070415 | 77 | 180 | 3.0 | 5.0 | 0.00 | 0.00 | 0.00 | 83 | 1014.6 |
| 20260905065435 | 77 | 0.0 | 0.0 | 0.00 | 0.00 | 0.00 | 83 | 1014.7 | |
| 20260905064416 | 77 | 180 | 1.0 | 2.0 | 0.00 | 0.00 | 0.00 | 83 | 1014.7 |
| 20260905063415 | 78 | 0.0 | 0.0 | 0.00 | 0.00 | 0.00 | 83 | 1014.9 | |
| 20260905062437 | 78 | 0.0 | 0.0 | 0.00 | 0.00 | 0.00 | 83 | 1014.9 | |
| 20260905061417 | 78 | 135 | 2.0 | 3.0 | 0.00 | 0.00 | 0.00 | 83 | 1015.0 |
| 20260905060417 | 79 | 0.0 | 1.0 | 0.00 | 0.00 | 0.00 | 83 | 1015.1 | |
| 20260905055417 | 79 | 0.0 | 0.0 | 0.00 | 0.00 | 0.00 | 82 | 1015.0 | |
| 20260905054417 | 79 | 0.0 | 0.0 | 0.00 | 0.00 | 0.00 | 82 | 1015.0 | |
| 20260905053417 | 79 | 0.0 | 1.0 | 0.00 | 0.00 | 0.00 | 82 | 1015.0 | |
| 20260905052417 | 79 | 0.0 | 1.0 | 0.00 | 0.00 | 0.00 | 82 | 1014.8 | |
| 20260905051417 | 79 | 135 | 2.0 | 3.0 | 0.00 | 0.00 | 0.00 | 82 | 1014.7 |
| 20260905050417 | 79 | 158 | 2.0 | 4.0 | 0.00 | 0.00 | 0.00 | 82 | 1014.6 |
| 20260905045417 | 79 | 158 | 3.0 | 4.0 | 0.00 | 0.00 | 0.00 | 82 | 1014.4 |
| 20260905044417 | 79 | 180 | 2.0 | 4.0 | 0.00 | 0.00 | 0.00 | 82 | 1014.3 |
| 20260905043419 | 79 | 158 | 3.0 | 5.0 | 0.00 | 0.00 | 0.00 | 83 | 1014.3 |
| 20260905042417 | 79 | 180 | 4.0 | 6.0 | 0.00 | 0.00 | 0.00 | 83 | 1014.3 |
| 20260905041437 | 79 | 158 | 4.0 | 5.0 | 0.00 | 0.00 | 0.00 | 83 | 1014.2 |
| 20260905040418 | 79 | 180 | 4.0 | 5.0 | 0.00 | 0.00 | 0.00 | 83 | 1014.4 |
| 20260905035437 | 79 | 158 | 2.0 | 4.0 | 0.00 | 0.00 | 0.00 | 83 | 1014.6 |
| 20260905034417 | 79 | 135 | 2.0 | 2.0 | 0.00 | 0.00 | 0.00 | 83 | 1014.5 |
| 20260905033417 | 80 | 135 | 2.0 | 2.0 | 0.00 | 0.00 | 0.00 | 83 | 1014.6 |
| 20260905032418 | 80 | 135 | 1.0 | 2.0 | 0.00 | 0.00 | 0.00 | 83 | 1014.5 |
| 20260905031417 | 80 | 158 | 1.0 | 2.0 | 0.00 | 0.00 | 0.00 | 83 | 1014.4 |
| 20260905030417 | 80 | 135 | 3.0 | 3.0 | 0.00 | 0.00 | 0.00 | 83 | 1014.3 |
| 20260905025417 | 81 | 90 | 1.0 | 2.0 | 0.00 | 0.00 | 0.00 | 82 | 1014.3 |
| 20260905024417 | 81 | 0.0 | 0.0 | 0.00 | 0.00 | 0.00 | 82 | 1014.3 | |
| 20260905023417 | 82 | 90 | 1.0 | 1.0 | 0.00 | 0.00 | 0.00 | 82 | 1014.2 |
| 20260905022417 | 82 | 90 | 1.0 | 1.0 | 0.00 | 0.00 | 0.00 | 82 | 1014.0 |
| 20260905021417 | 82 | 135 | 1.0 | 3.0 | 0.00 | 0.00 | 0.00 | 83 | 1013.8 |
| 20260905020416 | 82 | 180 | 2.0 | 4.0 | 0.00 | 0.00 | 0.00 | 82 | 1013.7 |
| 20260905015416 | 83 | 0.0 | 0.0 | 0.00 | 0.00 | 0.00 | 82 | 1013.8 | |
| 20260905014417 | 83 | 0.0 | 0.0 | 0.00 | 0.00 | 0.00 | 82 | 1014.0 | |
| 20260905013416 | 84 | 0.0 | 0.0 | 0.00 | 0.00 | 0.00 | 81 | 1013.8 | |
| 20260905012418 | 84 | 0.0 | 0.0 | 0.00 | 0.00 | 0.00 | 81 | 1013.7 | |
| 20260905011417 | 85 | 0.0 | 0.0 | 0.00 | 0.00 | 0.00 | 80 | 1013.7 | |
| 20260905010416 | 86 | 0.0 | 0.0 | 0.00 | 0.00 | 0.00 | 79 | 1013.7 | |
| 20260905005416 | 86 | 0.0 | 0.0 | 0.00 | 0.00 | 0.00 | 77 | 1013.5 | |
| 20260905004416 | 88 | 0.0 | 0.0 | 0.00 | 0.00 | 0.00 | 75 | 1013.6 | |
| 20260905003416 | 88 | 0.0 | 0.0 | 0.00 | 0.00 | 0.00 | 75 | 1013.6 | |
| 20260905002416 | 89 | 0.0 | 0.0 | 0.00 | 0.00 | 0.00 | 72 | 1013.5 | |
| 20260905001416 | 89 | 0.0 | 0.0 | 0.00 | 0.00 | 0.00 | 74 | 1013.5 | |
| 20260905000417 | 90 | 0.0 | 0.0 | 0.00 | 0.00 | 0.00 | 70 | 1013.6 | |
| 20260904235416 | 91 | 0.0 | 0.0 | 0.00 | 0.00 | 0.00 | 69 | 1013.4 | |
| 20260904234416 | 91 | 0.0 | 0.0 | 0.00 | 0.00 | 0.00 | 67 | 1013.5 | |
| 20260904233416 | 91 | 158 | 1.0 | 2.0 | 0.00 | 0.00 | 0.00 | 66 | 1013.4 |
| 20260904232416 | 92 | 158 | 2.0 | 3.0 | 0.00 | 0.00 | 0.00 | 65 | 1013.3 |
| 20260904231416 | 92 | 180 | 1.0 | 3.0 | 0.00 | 0.00 | 0.00 | 65 | 1013.3 |
| 20260904230416 | 93 | 158 | 3.0 | 5.0 | 0.00 | 0.00 | 0.00 | 64 | 1013.4 |
| 20260904225417 | 93 | 158 | 3.0 | 4.0 | 0.00 | 0.00 | 0.00 | 62 | 1013.4 |
| 20260904224416 | 94 | 180 | 2.0 | 3.0 | 0.00 | 0.00 | 0.00 | 61 | 1013.6 |
| 20260904223416 | 94 | 158 | 2.0 | 3.0 | 0.00 | 0.00 | 0.00 | 60 | 1013.6 |
| 20260904222416 | 94 | 180 | 2.0 | 4.0 | 0.00 | 0.00 | 0.00 | 59 | 1013.7 |
| 20260904221416 | 94 | 158 | 3.0 | 8.0 | 0.00 | 0.00 | 0.00 | 59 | 1013.7 |
| 20260904220416 | 95 | 180 | 4.0 | 8.0 | 0.00 | 0.00 | 0.00 | 59 | 1013.8 |
| 20260904215536 | 95 | 203 | 4.0 | 7.0 | 0.00 | 0.00 | 0.00 | 59 | 1013.9 |
| 20260904214416 | 95 | 180 | 3.0 | 4.0 | 0.00 | 0.00 | 0.00 | 59 | 1013.9 |